Regional Weather Roundup
Issued by NWS Charleston, SC

Current Version | Previous Version | Text Only | Print | Product List | Glossary Off
Versions: 1 2 3 4 5 6 7 8 9 10 11 12 13 14 15 16 17 18 19 20 21 22 23 24 25 26 27 28 29 30 31 32 33 34 35 36 37 38 39 40 41 42 43 44 45 46 47 48 49 50

000
ASUS42 KCHS 172025
RWRCHS

REGIONAL WEATHER ROUNDUP
NATIONAL WEATHER SERVICE CHARLESTON SC
300 PM EST WED DEC 17 2014

NOTE: "FAIR" INDICATES FEW OR NO CLOUDS BELOW 12,000 FEET WITH NO
SIGNIFICANT WEATHER AND/OR OBSTRUCTIONS TO VISIBILITY.

NOT ALL STATIONS ARE QUALITY CONTROLLED BY THE NATIONAL
WEATHER SERVICE. USE DATA WITH CAUTION...ESPECIALLY
DEWPOINT OBSERVATIONS.

SCZ027-030-031-034>040-042>050-172100-
...SOUTHEAST SOUTH CAROLINA...

CITY           SKY/WX    TMP DP  RH WIND       PRES   REMARKS
N CHARLESTON   PTSUNNY   65  41  41 W3        30.08S
WATERFRONT PRK   N/A     59 N/A N/A SE8         N/A
MOUNT PLEASANT LGT RAIN  61  41  48 S6        30.08S
PINOPOLIS        N/A     61  45  55 VRB3      30.00R
MONCKS CORNER  FAIR      64  41  42 CALM      30.07F
SUMMERVILLE    FAIR      64  43  45 SW5       30.08F
BEAUFORT MCAS  PTSUNNY   65  41  41 W8        30.08F
BEAUFORT ARPT  FAIR      61  45  55 S5        30.09S
HILTON HEAD IS SUNNY     57  45  62 SE5       30.10F
WALTERBORO     CLEAR     64  34  32 SW7       30.08F
ALLENDALE      FAIR      63  39  42 W6        30.08S

...SOUTHERN MIDLANDS AND PEE DEE...

CITY           SKY/WX    TMP DP  RH WIND       PRES   REMARKS
GEORGETOWN     NOT AVBL
KINGSTREE      NOT AVBL
ORANGEBURG     SUNNY     62  39  42 SW8       30.07F
BARNWELL       FAIR      63  39  42 CALM      30.09S
AIKEN          FAIR      61  37  41 W7        30.11R
MANNING        NOT AVBL
COLUMBIA       PTSUNNY   62  37  39 CALM      30.07F
SUMTER         SUNNY     63  37  39 SW9       30.06S
FLORENCE       MOSUNNY   62  38  40 W7        30.06S
MYRTLE BEACH   SUNNY     59  43  55 S12       30.07S
N MYRTLE BEACH MOSUNNY   58  45  62 S9        30.06R

$$

GAZ063-065-086>088-099>101-113>116-118-119-134>141-150-172100-
...SOUTHEAST GEORGIA...

CITY           SKY/WX    TMP DP  RH WIND       PRES   REMARKS
SAVANNAH ARPT  PTSUNNY   66  40  38 W8        30.09F
HUNTER AAF     SUNNY     65  42  42 VRB5      30.07F
FORT STEWART   SUNNY     63  41  44 W7        30.09S
STATESBORO     SUNNY     62  43  49 W6        30.10S
SYLVANIA       CLEAR     62  43  49 W5        30.10S
CLAXTON        FAIR      63  43  48 W5        30.10S

...CSRA...CENTRAL AND FAR SOUTHEAST GEORGIA...

CITY           SKY/WX    TMP DP  RH WIND       PRES   REMARKS
THOMSON        MOSUNNY   62  44  52 W8        30.12F
AUGUSTA-BUSH   SUNNY     61  38  42 SW5       30.09S
AUGUSTA-DANIEL SUNNY     61  38  42 SW3       30.09F
SWAINSBORO     FAIR      63  43  48 W3        30.10F
VIDALIA        SUNNY     63  43  48 W7        30.11F
EASTMAN        FAIR      65  39  39 NW8       30.13F
HAZLEHURST     FAIR      66  42  42 W5        30.10F
ALMA           MOSUNNY   63  40  42 W9        30.11S
WAYCROSS       MOSUNNY   67  45  45 NW6       30.11F
JESUP          FAIR      66  45  45 NW10      30.11S
BAXLEY         FAIR      64  41  42 W7        30.11F
BRUNSWICK      SUNNY     66  39  37 W6        30.11R
SAINT SIMONS   SUNNY     62  44  51 SW6       30.09F

$$

SCZ027-028-034-036>038-045-046-048>050-GAZ119-141-172100-
...LAKE AND SUPPLEMENTAL COASTAL OBSERVATIONS...

STATION/POSITION TIME  TEMP    WIND        PRES    WAVE   SWELL
                       AIR SEA DIR/SP/G            HT/PER HT/PER/DIR
                 (UTC) (F)     (DEG/KT/KT) (MB)    (FT/S) (FT/S/D)
UPR LAKE MARION  NOT AVBL
WINYAH BAY       2000   57     140/  7     1017.0S
LAKE MURRAY      2000   58     210/  7/  9 1017.6F
ACE BASIN NERRS  2000   60     190/  1     1019.0S
FORT PULASKI     2000   59 57  140/  4/  6 1019.3F
SAPELO ISLAND    2000   63     180/  4     1019.0S

$$

ANZ835-935-AMZ111-154-330-350-352-354-370-450-454-472-172100-
...C-MAN AND BUOY OBSERVATIONS...

STATION/POSITION TIME  TEMP    WIND        PRES    WAVE   SWELL
                       AIR SEA DIR/SP/G            HT/PER HT/PER/DIR
                 (UTC) (F)     (DEG/KT/KT) (MB)    (FT/S) (FT/S/D)
BUOY 41004       2000   60 73  320/  2/  4 1018.0F   2/ 4   2/11
BUOY 41008       2000   54 59  210/  2/  4 1019.3F   1/11   2/ 90/11
FOLLY BEACH CMAN 2000   57     200/  6/  7 1019.6R
CAPERS NEARSHORE 1900   58     160/  6/  8   N/A
FRIPP NEARSHORE  NOT AVBL


STATION/POSITION TIME  TEMP    WIND        PRES    WAVE   SWELL
                       AIR SEA DIR/SP/G            HT/PER HT/PER/DIR
                 (UTC) (F)     (DEG/KT/KT) (MB)    (FT/S) (FT/S/D)
5E ST. MARYS GA  2000      62                N/A     1/11
FRYING PAN BUOY  2000   57 67  300/  4/  6 1018.5F   3/ 6   2/200/ 6
BUOY 41025       2000   55                 1016.5F   3/ 7
CAPE LOOKOUT NC  2000   57     230/  6/  8 1016.7F
BUOY 41002       1927   68 73  320/  8/ 12 1017.3R   7/ 7   7/290/ 7
BUOY 41010       1900   71 76  290/ 12/ 16 1018.8F
ST AUGUSTINE FL  2000   60      80/  6/  7 1019.8F


$$



USA.gov is the U.S. government's official web portal to all federal, state and local government web resources and services.